EST,Max TemperatureF,Mean TemperatureF,Min TemperatureF,Max Dew PointF,MeanDew PointF,Min DewpointF,Max Humidity, Mean Humidity, Min Humidity, Max Sea Level PressureIn, Mean Sea Level PressureIn, Min Sea Level PressureIn, Max VisibilityMiles, Mean VisibilityMiles, Min VisibilityMiles, Max Wind SpeedMPH, Mean Wind SpeedMPH, Max Gust SpeedMPH,PrecipitationIn, CloudCover, Events, WindDirDegrees
2011-11-1,67,52,37,43,38,34,100,68,31,30.34,30.28,30.21,10,10,8,16,4,22,0.00,0,,40
2011-11-2,67,51,35,43,39,33,100,71,34,30.43,30.34,30.30,10,9,5,12,2,16,0.00,0,,63
2011-11-3,72,54,35,59,45,34,100,77,49,30.28,30.11,29.80,10,8,2,13,4,20,0.04,1,,147
2011-11-4,63,55,47,63,51,43,93,83,64,30.05,29.83,29.74,10,10,4,25,12,35,0.03,7,Rain,287
2011-11-5,60,51,41,44,37,30,89,59,40,30.36,30.24,30.05,10,10,10,22,11,28,0.00,1,,36
2011-11-6,70,55,39,50,44,37,92,71,47,30.44,30.38,30.34,10,10,10,14,6,17,0.00,2,,30
2011-11-7,75,62,48,52,49,46,93,74,41,30.38,30.31,30.25,10,10,10,10,4,13,0.00,0,,42
2011-11-8,75,60,44,54,49,44,100,83,49,30.27,30.21,30.16,10,8,0,10,2,15,0.00,0,Fog,58
2011-11-9,74,58,42,51,46,42,100,84,33,30.17,30.10,29.99,10,6,1,10,2,13,0.00,0,,52
2011-11-10,70,58,45,58,49,32,100,71,47,30.01,29.90,29.82,10,9,4,16,5,23,T,4,Rain,291
2011-11-11,58,46,33,35,27,16,89,59,19,30.25,30.15,30.02,10,10,10,13,4,18,0.00,0,,308
2011-11-12,66,48,29,35,28,21,100,60,19,30.37,30.30,30.25,10,10,7,9,1,13,0.00,0,,204
2011-11-13,75,57,38,50,44,35,96,71,38,30.31,30.24,30.16,10,10,9,17,2,23,0.00,0,,192
2011-11-14,80,64,48,56,52,46,100,75,39,30.20,30.14,30.05,10,7,0,15,4,21,0.00,1,Fog,208
2011-11-15,82,70,57,66,62,55,100,86,54,30.08,30.03,29.96,10,7,1,17,6,25,0.00,4,,196
2011-11-16,83,75,66,70,66,64,100,84,58,29.98,29.90,29.81,10,9,1,22,9,26,0.60,6,Rain,212
2011-11-17,71,57,43,67,58,32,93,80,48,30.31,29.95,29.83,10,10,8,24,10,32,T,6,Rain,266
2011-11-18,55,44,32,30,24,14,78,53,20,30.51,30.43,30.35,10,10,10,15,4,20,0.00,0,,65
2011-11-19,65,50,35,48,39,27,86,68,51,30.45,30.38,30.33,10,10,10,10,4,14,0.00,2,,54
2011-11-20,76,62,48,61,55,46,100,83,54,30.37,30.31,30.28,10,8,1,13,1,15,T,4,Rain,280
2011-11-21,81,69,56,63,59,55,100,87,51,30.30,30.24,30.17,10,5,0,13,3,16,0.00,1,Fog,241
2011-11-22,80,67,53,63,57,52,100,88,48,30.22,30.15,29.98,10,4,0,14,6,21,0.00,2,Fog,182
2011-11-23,75,64,52,66,57,38,90,72,37,30.17,29.95,29.89,10,10,9,22,11,29,0.06,5,Rain,264
2011-11-24,66,53,39,38,35,31,92,57,28,30.38,30.32,30.19,10,10,10,15,4,20,0.00,0,,19
2011-11-25,71,51,31,37,34,25,96,66,18,30.43,30.36,30.28,10,9,6,7,1,9,0.00,0,,286
2011-11-26,70,55,39,53,48,37,92,70,52,30.36,30.29,30.24,10,10,7,10,3,14,0.00,7,,134
2011-11-27,77,68,59,59,55,53,80,67,46,30.22,30.12,30.02,10,10,10,16,5,23,0.00,8,,145
2011-11-28,73,60,46,66,57,44,93,88,68,30.00,29.88,29.80,10,8,2,22,10,31,0.70,7,Rain,184
2011-11-29,53,45,37,45,40,33,93,84,50,29.97,29.91,29.86,10,10,9,20,8,25,T,6,,225
2011-11-30,58,46,34,39,35,33,100,77,43,30.14,30.02,29.96,10,10,7,12,4,15,0.00,0,,281